49P/Arend-Rigaux (2018)

Japanese version
Home page
Updated on June 15, 2021

---------------------------------------------------------------------

* Profile

* Pictures

* Orbital Elements

Epoch 2018 July 21.0 TT = JDT 2458320.5
T 2018 July 15.49761 TT                                 Rudenko
q   1.4296072            (2000.0)            P               Q
n   0.14618295     Peri.  332.88801     -0.05173115     -0.95687528
a   3.5689317      Node   118.82426     +0.96518809     -0.12139251
e   0.5994299      Incl.   19.04322     +0.25639001     +0.26391960
P   6.74
From 3684 observations 1951 Apr. 6-2020 July 20, mean residual 0".7.
     Nongravitational parameters A1 = +0.01, A2 = -0.0004.

* Finding Charts

* Magnitudes Graph

        H = 13.5  G = 0.15                       [   , -80]  (             - 2018 Apr. 26)
        m1 = 8.0 + 5 log d + 30.0 log r(t - 10)  [-80, 117]  (2018 Apr. 26 - 2018 Nov.  9)
        H = 13.5  G = 0.15                       [117,    ]  (2018 Nov.  9 -             )

---------------------------------------------------------------------

The orbital elements are published on M.P.E.C. 2021-F20.
The charts are made with StellaNavigator Ver.8 (AstroArts).
The magnitudes graphs are made with Comet for Windows.

---------------------------------------------------------------------

Copyright(C) Seiichi Yoshida (comet@aerith.net). All rights reserved.